Weather History for Miami, FL

Change the Weather History Date:

Saturday, May 3, 2014

  Actual Average Record
Temperature  
Mean Temperature 82 °F 78 °F  
Max Temperature 90 °F 85 °F 91 °F (1896)
Min Temperature 74 °F 71 °F 54 °F (1940)
Degree Days  
Heating Degree Days 0 0  
Month to date heating degree days 0 0  
Since 1 July heating degree days 61 128  
Cooling Degree Days 17 13  
Month to date cooling degree days 53 39  
Year to date cooling degree days 1134 932  
Growing Degree Days 32 (Base 50)    
Moisture  
Dew Point 70 °F    
Average Humidity 69    
Maximum Humidity 87    
Minimum Humidity 50    
Precipitation  
Precipitation 0.29 in 0.11 in 2.88 in (2005)
Month to date precipitation 0.29 0.31  
Year to date precipitation 7.15 10.32  
Snow  
Snow 0.00 in - - ()
Month to date snowfall 0.0  
Since 1 July snowfall 0.0  
Snow Depth 0.00 in    
Sea Level Pressure  
Sea Level Pressure 29.96 in    
Wind  
Wind Speed 7 mph (WSW)    
Max Wind Speed 20 mph    
Max Gust Speed 28 mph    
Visibility 10 miles    
Events Rain , Thunderstorm    
T = Trace of Precipitation, MM = Missing Value Source: NWS Daily Summary

Daily Weather History Graph

Daily Weather History Graph

Search for Another Location

Airport:

Trip Planner

Search our weather history database for the weather conditions in past years. The results will help you decide how hot, cold, wet, or windy it might be!

Date:

Astronomy

May. 03, 2014 Rise Set
Actual Time 6:43 AM EDT 7:53 PM EDT
Civil Twilight 6:18 AM EDT 8:17 PM EDT
Nautical Twilight 5:49 AM EDT 8:46 PM EDT
Astronomical Twilight 5:20 AM EDT 9:16 PM EDT
Moon 10:16 AM EDT (5/3) 11:55 PM EDT (5/3)
Length of Visible Light 13h 59m
Length of Day
13h 10m
Waxing Crescent, 19% of the Moon is Illuminated
May 3
Waxing Crescent
May 6
First Quarter
May 14
Full
May 21
Last Quarter
May 28
New

Hourly Weather History & Observations

Time (EDT) Temp. Heat Index Dew Point Humidity Pressure Visibility Wind Dir Wind Speed Gust Speed Precip Events Conditions
12:53 AM 78.1 °F - 69.1 °F 74% 29.98 in 10.0 mi NNE 6.9 mph - N/A   Mostly Cloudy
1:53 AM 77.0 °F - 70.0 °F 79% 29.96 in 10.0 mi NE 4.6 mph - N/A   Mostly Cloudy
2:53 AM 77.0 °F - 69.1 °F 76% 29.94 in 10.0 mi NE 5.8 mph - N/A   Mostly Cloudy
3:53 AM 78.1 °F - 68.0 °F 71% 29.94 in 10.0 mi NE 3.5 mph - N/A   Mostly Cloudy
4:53 AM 77.0 °F - 69.1 °F 76% 29.94 in 10.0 mi ESE 5.8 mph - N/A   Overcast
5:53 AM 77.0 °F - 69.8 °F 78% 29.94 in 10.0 mi SE 3.5 mph - N/A Rain Light Rain
6:53 AM 78.1 °F - 71.1 °F 79% 29.94 in 10.0 mi South 8.1 mph - 0.00 in   Mostly Cloudy
7:53 AM 77.0 °F - 72.0 °F 84% 29.94 in 10.0 mi South 10.4 mph - N/A   Overcast
8:53 AM 78.1 °F - 71.1 °F 79% 29.94 in 10.0 mi South 8.1 mph - N/A   Overcast
9:53 AM 80.1 °F 83.8 °F 72.0 °F 76% 29.96 in 10.0 mi SSW 5.8 mph - N/A   Overcast
10:53 AM 84.0 °F 89.6 °F 72.0 °F 67% 29.97 in 10.0 mi SSW 6.9 mph - N/A   Mostly Cloudy
11:53 AM 86.0 °F 90.1 °F 69.1 °F 57% 29.98 in 10.0 mi SW 10.4 mph - N/A   Mostly Cloudy
12:53 PM 87.1 °F 92.0 °F 70.0 °F 57% 29.96 in 10.0 mi SW 9.2 mph - N/A   Mostly Cloudy
1:53 PM 89.1 °F 92.9 °F 68.0 °F 50% 29.94 in 10.0 mi South 11.5 mph - N/A   Mostly Cloudy
2:53 PM 87.1 °F 91.3 °F 69.1 °F 55% 29.94 in 10.0 mi WSW 13.8 mph - N/A   Mostly Cloudy
3:24 PM 82.0 °F 85.5 °F 69.1 °F 65% 29.94 in 10.0 mi West 15.0 mph 28.8 mph 0.00 in Rain Light Rain
3:34 PM 77.0 °F - 70.0 °F 79% 29.96 in 10.0 mi WNW 17.3 mph 26.5 mph 0.00 in Rain , Thunderstorm Light Thunderstorms and Rain
3:53 PM 73.4 °F - 69.8 °F 88% 29.94 in 7.0 mi WNW 12.7 mph 23.0 mph N/A Rain , Thunderstorm Light Thunderstorms and Rain
4:10 PM 75.0 °F - 70.0 °F 84% 29.95 in 7.0 mi WSW 6.9 mph - 0.01 in Rain Rain
4:53 PM 77.0 °F - 72.0 °F 84% 29.95 in 9.0 mi WNW 8.1 mph - 0.22 in Rain Light Rain
5:53 PM 77.0 °F - 71.1 °F 82% 29.97 in 10.0 mi NW 6.9 mph - 0.00 in   Overcast
6:53 PM 77.0 °F - 72.0 °F 84% 29.96 in 10.0 mi NNE 5.8 mph - 0.00 in   Overcast
7:53 PM 75.9 °F - 70.0 °F 82% 29.97 in 10.0 mi NNE 4.6 mph - N/A   Mostly Cloudy
8:53 PM 75.9 °F - 71.1 °F 85% 29.99 in 10.0 mi NNW 3.5 mph - N/A   Overcast
9:53 PM 75.9 °F - 71.1 °F 85% 30.00 in 10.0 mi Calm Calm - 0.00 in   Mostly Cloudy
10:53 PM 75.9 °F - 71.1 °F 85% 30.02 in 10.0 mi NW 3.5 mph - N/A   Overcast
11:53 PM 75.9 °F - 71.1 °F 85% 30.01 in 10.0 mi SSE 5.8 mph - 0.00 in Rain Light Rain